Regional Weather Roundup
Issued by NWS Charleston, WV

Home | Current Version | Previous Version | Graphics & Text | Print | Product List | Glossary On
Versions: 1 2 3 4 5 6 7 8 9 10 11 12 13 14 15 16 17 18 19 20 21 22 23 24 25 26 27 28 29 30 31 32 33 34 35 36 37 38 39 40 41 42 43 44 45 46 47 48 49 50
000
ASUS41 KRLX 010310
RWRRLX
CRWRWRRLX ALL
West Virginia Regional Weather Roundup
National Weather Service Charleston WV
Issued by National Weather Service Pittsburgh PA
1100 PM EDT FRI SEP 30 2016

Note: "fair" indicates few or no clouds below 12,000 feet with no
significant weather and/or obstructions to visibility.

WVZ003-010400-
Northern Panhandle of West Virginia

CITY           SKY/WX    TMP DP  RH WIND       PRES   REMARKS
WHEELING       LGT RAIN  59  55  87 E8        30.08S
$$

WVZ009-010400-
Northwest West Virginia

CITY           SKY/WX    TMP DP  RH WIND       PRES   REMARKS
PARKERSBURG    CLOUDY    61  59  93 CALM      30.06F
$$

WVZ006-010400-
Western West Virginia

CITY           SKY/WX    TMP DP  RH WIND       PRES   REMARKS
HUNTINGTON     FOG       54  52  93 CALM      30.04S VSB 1/4
$$

WVZ015-010400-
West Central West Virginia

CITY           SKY/WX    TMP DP  RH WIND       PRES   REMARKS
CHARLESTON     MOCLDY    60  57  89 CALM      30.05S
$$

WVZ031-010400-
North Central West Virginia

CITY           SKY/WX    TMP DP  RH WIND       PRES   REMARKS
CLARKSBURG     CLOUDY    58  56  93 NE6       30.07S
MORGANTOWN     CLOUDY    62  53  72 SE5       30.09S
$$

WVZ035-042-010400-
South Central West Virginia

CITY           SKY/WX    TMP DP  RH WIND       PRES   REMARKS
BECKLEY        CLOUDY    58  56  93 CALM      30.09S
BLUEFIELD      CLOUDY    55  54  96 W3        30.10S FOG
$$

WVZ045-010400-
Greenbrier Valley of West Virginia

CITY           SKY/WX    TMP DP  RH WIND       PRES   REMARKS
LEWISBURG      MOCLDY    60  58  92 CALM      30.09S
$$

WVZ047-010400-
Northern Mountains of West Virginia

CITY           SKY/WX    TMP DP  RH WIND       PRES   REMARKS
ELKINS         CLOUDY    56  53  90 CALM      30.10S
$$

WVZ052-010400-
Eastern Panhandle of West Virginia

CITY           SKY/WX    TMP DP  RH WIND       PRES   REMARKS
MARTINSBURG    LGT RAIN  58  56  93 NE6       30.14S FOG
PETERSBURG     CLOUDY    58  56  96 CALM      30.15S
$$



USA.gov is the U.S. government's official web portal to all federal, state and local government web resources and services.